[Iaude] MPEC K112: 2024 KO [a=1.99,e=0.55,i=3.4,H=23.6]
    mpec at cfa.harvard.edu 
    mpec at cfa.harvard.edu
       
    Tue May 28 18:37:44 EDT 2024
    
    
  
M.P.E.C. 2024-K112                                 Issued 2024 May 28, 22:36 UT
     The Minor Planet Electronic Circulars contain information on unusual
         minor planets, routine data on comets and natural satellites,
         and occasional editorial announcements.  They are published
    on behalf of Division F of the International Astronomical Union by the
          Minor Planet Center, Smithsonian Astrophysical Observatory,
                          Cambridge, MA 02138, U.S.A.
			  
             Prepared using the Tamkin Foundation Computer Network
                              MPC at CFA.HARVARD.EDU
            URL https://www.minorplanetcenter.net/    ISSN 1523-6714
                                    2024 KO                                     
Observations:
     K24K00O*1C2024 05 27.30177515 48 57.366+53 56 51.25         19.68GVEK112G96
     K24K00O 1C2024 05 27.30704415 49 03.702+53 55 05.66         19.81GVEK112G96
     K24K00O 1C2024 05 27.31231015 49 10.225+53 53 17.95         19.57GVEK112G96
     K24K00O 1C2024 05 27.31756515 49 16.500+53 51 30.92         19.77GVEK112G96
     K24K00O  C2024 05 27.33793015 49 40.363+53 44 30.13         19.6 GVEK112H01
     K24K00O  C2024 05 27.34152815 49 44.712+53 43 16.51         20.0 GVEK112H01
     K24K00O  C2024 05 27.35278015 49 58.309+53 39 25.72         20.1 GVEK112H01
     K24K00O KC2024 05 27.35822515 50 05.550+53 37 40.73         19.88GVEK112I52
     K24K00O  C2024 05 27.36030615 50 07.381+53 36 51.46         19.9 GVEK112H01
     K24K00O KC2024 05 27.36043315 50 08.200+53 36 55.30         20.02GVEK112I52
     K24K00O KC2024 05 27.36152715 50 09.517+53 36 32.94         19.84GVEK112I52
     K24K00O KB2024 05 27.94353616 01 45.04 +50 19 21.7          19.5 GXEK112958
     K24K00O KB2024 05 27.94823516 01 49.83 +50 17 47.2          19.6 GXEK112958
     K24K00O KB2024 05 27.95293116 01 54.58 +50 16 12.4          18.4 GXEK112958
     K24K00O KB2024 05 28.20664 16 06 20.647+48 50 39.52         19.9 RZEK112H36
     K24K00O KB2024 05 28.21545 16 06 28.908+48 47 41.89         19.6 RZEK112H36
     K24K00O KB2024 05 28.22410 16 06 36.953+48 44 47.26         19.9 RZEK112H36
     K24K00O  C2024 05 28.26007116 07 12.746+48 32 52.23         19.5 GVEK112H01
     K24K00O  C2024 05 28.26374216 07 16.126+48 31 38.17         19.4 GVEK112H01
     K24K00O  C2024 05 28.27728416 07 28.527+48 27 05.11         19.8 GVEK112H01
     K24K00O  C2024 05 28.28092816 07 31.852+48 25 51.51         19.7 GVEK112H01
     K24K00O 1C2024 05 28.32376616 08 11.429+48 11 29.33         19.82GVEK112G96
     K24K00O 1C2024 05 28.32900716 08 16.249+48 09 41.47               VEK112G96
     K24K00O KC2024 05 28.33405116 08 20.764+48 07 59.30         19.88GVEK112I52
     K24K00O 1C2024 05 28.33422416 08 20.936+48 07 55.81         19.48GVEK112G96
     K24K00O KC2024 05 28.33459816 08 21.232+48 07 48.11         19.68GVEK112I52
     K24K00O KC2024 05 28.33514816 08 21.746+48 07 37.24         20.00GVEK112I52
     K24K00O KC2024 05 28.33569316 08 22.268+48 07 25.75         19.60GVEK112I52
     K24K00O KC2024 05 28.33623816 08 22.715+48 07 14.88         19.77GVEK112I52
     K24K00O KB2024 05 28.90900 16 17 07.70 +44 55 22.2          20.6 GXEK112G15
     K24K00O KB2024 05 28.91493 16 17 12.24 +44 53 25.6          19.5 GXEK112G15
Observer details:
958 Observatoire de Dax.  Observer P. Dupouy.  0.50-m f/4.5 Reflector + CMO.
G15 Magroforte Observatory, Alessandria.  Observer A. De Pieri.  0.23-m f/6.7
    SC + CMO.
G96 Mt. Lemmon Survey.  Observer K. W. Wierzchos.  Measurers T. Beuden, V. F.
    Carvajal, D. Fay, J. B. Fazekas, D. C. Fuls, A. R. Gibbs, A. D. Grauer, H.
    Groeller, J. K. Hogan, R. A. Kowalski, S. M. Larson, G. J. Leonard, D.
    Rankin, R. L. Seaman, F. C. Shelly, K. W. Wierzchos.  1.5-m reflector +
    10K CCD.
H01 Magdalena Ridge Observatory, Socorro.  Observers W. H. Ryan, E. V. Ryan.
    Measurer W. H. Ryan.  2.4-m f/8.9 Ritchey-Chretien + CCD.
H36 Sandlot Observatory, Scranton.  Observer G. Hug.  0.56-m f/4.8 reflector +
    CMO.
I52 Steward Observatory, Mt. Lemmon Station.  Observer R. A. Kowalski.
    Measurers T. Beuden, V. F. Carvajal, D. Fay, J. B. Fazekas, D. C. Fuls, A.
    R. Gibbs, A. D. Grauer, H. Groeller, J. K. Hogan, R. A. Kowalski, S. M.
    Larson, G. J. Leonard, D. Rankin, R. L. Seaman, F. C. Shelly, K. W.
    Wierzchos.  1.0-m prime focus + CCD.
Orbital elements:
2024 KO                                                  Earth MOID = 0.0248 AU
Epoch 2024 Mar. 31.0 TT = JDT 2460400.5                 MPC                     
M 353.07933              (2000.0)            P               Q                  
n   0.35013410     Peri.   66.13065     -0.95783792     +0.28372902             
a   1.9936386      Node   130.31980     -0.28043416     -0.88904751             
e   0.5460783      Incl.    3.39976     -0.06247560     -0.35929425             
P   2.81           H   23.63          G   0.15           U   8                  
Residuals in seconds of arc
240527 G96  0.2-  0.4-    240527 958  0.2+  0.1-    240528 G96  0.4+  0.5-
240527 G96 (0.7-  0.9+)   240527 958  0.3+  0.1+    240528 I52  0.1+  0.2-
240527 G96  0.5+  0.1+    240527 958  0.2+  0.1+    240528 G96  0.3+  0.1-
240527 G96  0.2-  0.1-    240528 H36  0.4+  0.9+    240528 I52  0.1-  0.2-
240527 H01  0.1-  0.1+    240528 H36  0.4+  0.3+    240528 I52  0.1+  0.1+
240527 H01  0.0   0.1+    240528 H36  0.0   0.4-    240528 I52  0.4+  0.3-
240527 H01  0.0   0.1-    240528 H01  0.1-  0.1+    240528 I52  0.1-  0.1-
240527 I52  0.0   0.2+    240528 H01  0.0   0.1-    240528 G15  0.7+  0.1+
240527 H01  0.1-  0.1+    240528 H01  0.0   0.0     240528 G15  0.3-  0.3+
240527 I52  0.0   0.0     240528 H01  0.1-  0.1-
240527 I52  0.0   0.1+    240528 G96  0.5-  0.9+
Ephemeris:
2024 KO                  a,e,i = 1.99, 0.55, 3                   q = 0.9050
Date    TT    R. A. (2000) Decl.     Delta      r    Elong.  Phase     V
2024 04 28    06 12 05.6 +38 58 34   0.1968  0.9116    56.1   113.6    24.3
...
2024 05 13    07 08 01.5 +54 51 19   0.1056  0.9559    56.3   118.4    23.4
...
2024 05 21    10 17 05.7 +72 15 05   0.06825 0.9939    72.7   103.5    21.6
...
2024 05 27    15 42 06.6 +55 37 24   0.05868 1.0277   102.8    74.0    20.1
2024 05 28    16 02 41.9 +50 00 19   0.05954 1.0337   108.4    68.4    20.0
2024 05 29    16 18 19.0 +44 25 40   0.06111 1.0398   114.0    63.0    19.9
...
2024 06 04    17 04 20.6 +17 56 12   0.08226 1.0783   139.5    37.7    19.9
...
2024 06 12    17 24 54.1 +00 17 31   0.1277  1.1338   156.6    20.9    20.5
...
2024 06 27    17 38 41.0 -12 34 47   0.2364  1.2462   164.8    12.4    21.7
A. U. Tomatic                (C) Copyright 2024 MPC           M.P.E.C. 2024-K112
    
    
More information about the Iaude
mailing list